"Timestamp","TZ","WindDir_Mean (deg)","WindSpd_Mean (km/h)","WindSpd_Min (km/h)","WindSpd_Max (km/h)","Temp_Mean (deg)","RH_Mean (%)","MSLP_Mean (hPa)","Rain_Acc (mm)","Rain_Intensity (mm/h)","Hail_Acc (hits/cm2)","Hail_Intensity (hits/cm2hr)","Solar_Mean (W/m2)"
2021/08/13 00:00:00.010,n,338,13.32,12.24,14.4,18.2,74.8,1026.22,0,0,0,0,0.030479
2021/08/13 00:01:00.000,n,19,4.68,4.68,5.04,18.2,74.7,1026.22,0,0,0,0,0.033073
2021/08/13 00:02:00.000,n,3,8.64,7.2,9.72,18.2,74.8,1026.22,0,0,0,0,0.032234
2021/08/13 00:03:00.002,n,9,10.440002,8.64,11.88,18.2,74.8,1026.22,0,0,0,0,0.033073
2021/08/13 00:04:00.000,n,333,4.32,3.24,5.76,18.2,75.4,1026.32,0,0,0,0,0.031357
2021/08/13 00:05:00.000,n,30,11.16,9.36,12.24,18.2,74.8,1026.22,0,0,0,0,0.033989
2021/08/13 00:06:00.009,n,351,10.440002,9,11.52,18.2,74.8,1026.22,0,0,0,0,0.034828
2021/08/13 00:07:00.006,n,4,3.96,1.8,4.68,18.2,74.8,1026.22,0,0,0,0,0.033073
2021/08/13 00:08:00.003,n,351,7.92,6.48,9.72,18.2,75.2,1026.22,0,0,0,0,0.036583
2021/08/13 00:09:00.000,n,17,4.68,2.88,5.76,18.3,75.9,1026.22,0,0,0,0,0.033989
2021/08/13 00:10:00.000,n,32,2.52,1.44,3.96,18.4,76.1,1026.22,0,0,0,0,0.0383
2021/08/13 00:11:00.000,n,40,4.68,1.44,5.76,18.4,74.9,1026.22,0,0,0,0,0.033073
2021/08/13 00:12:00.000,n,6,3.6,1.44,5.76,18.3,74.7,1026.22,0,0,0,0,0.034828
2021/08/13 00:13:00.005,n,350,10.440002,9.72,11.52,18.3,74.4,1026.12,0,0,0,0,0.035706
2021/08/13 00:14:00.002,n,11,2.16,0.36,4.68,18.3,74.5,1026.22,0,0,0,0,0.035706
2021/08/13 00:15:00.000,n,30,4.32,2.52,5.76,18.3,74.5,1026.12,0,0,0,0,0.035706
2021/08/13 00:16:00.012,n,353,8.64,7.2,9.36,18.3,74.3,1026.12,0,0,0,0,0.034828
2021/08/13 00:17:00.009,n,17,3.96,3.6,5.04,18.2,74.3,1026.12,0,0,0,0,0.033989
2021/08/13 00:18:00.007,n,12,4.32,3.6,5.04,18.3,74.3,1026.12,0,0,0,0,0.034828
2021/08/13 00:19:00.000,n,16,8.28,7.92,9.72,18.2,74.3,1026.12,0,0,0,0,0.035706
2021/08/13 00:20:00.000,n,352,5.04,2.52,6.48,18.3,75.9,1026.12,0,0,0,0,0.037422
2021/08/13 00:21:00.000,n,7,6.12,5.4,6.84,18.3,74.4,1026.12,0,0,0,0,0.036583
2021/08/13 00:22:00.000,n,349,3.96,2.88,5.04,18.3,75.1,1026.12,0,0,0,0,0.0383
2021/08/13 00:23:00.000,n,343,5.76,4.68,6.84,18.3,74.8,1026.12,0,0,0,0,0.040054
2021/08/13 00:24:00.006,n,358,3.6,2.16,4.32,18.3,74.2,1026.12,0,0,0,0,0.037422
2021/08/13 00:25:00.003,n,5,4.32,3.6,5.4,18.3,74.6,1026.12,0,0,0,0,0.036583
2021/08/13 00:26:00.000,n,7,2.16,1.8,2.52,18.3,74.2,1026.12,0,0,0,0,0.037422
2021/08/13 00:27:00.014,n,0,5.4,4.32,7.2,18.3,74,1026.12,0,0,0,0,0.039215
2021/08/13 00:28:00.000,n,39,3.96,2.88,5.4,18.3,73.9,1026.12,0,0,0,0,0.040054
2021/08/13 00:29:00.000,n,348,6.84,4.68,8.64,18.3,74.3,1026.12,0,0,0,0,0.040932
2021/08/13 00:30:00.000,n,0,6.12,5.04,6.48,18.3,73.8,1026.12,0,0,0,0,0.041809
2021/08/13 00:31:00.002,n,21,5.76,5.04,6.84,18.3,73.8,1026.12,0,0,0,0,0.037422
2021/08/13 00:32:00.000,n,3,5.76,5.4,6.48,18.3,73.8,1026.12,0,0,0,0,0.040054
2021/08/13 00:33:00.000,n,11,4.32,2.88,5.4,18.3,73.8,1026.12,0,0,0,0,0.042648
2021/08/13 00:34:00.009,n,350,2.52,1.44,4.32,18.3,73.8,1026.12,0,0,0,0,0.040054
2021/08/13 00:35:00.006,n,0,7.56,6.12,9,18.3,73.8,1026.12,0,0,0,0,0.039215
2021/08/13 00:36:00.003,n,161,0.72,0,1.08,18.3,73.9,1026.22,0,0,0,0,0.046997
2021/08/13 00:37:00.001,n,353,2.52,2.16,2.88,18.3,74.3,1026.22,0,0,0,0,0.041809
2021/08/13 00:38:00.000,n,276,2.88,2.52,3.6,18.3,74.4,1026.22,0,0,0,0,0.040932
2021/08/13 00:39:00.000,n,238,5.04,4.32,5.4,18.3,73.9,1026.22,0,0,0,0,0.044403
2021/08/13 00:40:00.000,n,254,6.48,5.76,6.48,18.3,73.6,1026.22,0,0,0,0,0.044403
2021/08/13 00:41:00.008,n,250,7.2,6.48,7.92,18.3,73.5,1026.32,0,0,0,0,0.020866
2021/08/13 00:42:00.003,n,238,4.32,3.6,4.68,18.3,73.6,1026.32,0,0,0,0,0.027847
2021/08/13 00:43:00.000,n,247,3.24,2.88,3.6,18.3,73.7,1026.32,0,0,0,0,0.027847
2021/08/13 00:44:00.013,n,255,3.96,3.96,4.32,18.3,73.7,1026.32,0,0,0,0,0.031319
2021/08/13 00:45:00.010,n,259,1.08,0.36,1.44,18.2,73.7,1026.22,0,0,0,0,0.032196
2021/08/13 00:46:00.000,n,45,2.16,1.8,3.96,18.3,73.9,1026.22,0,0,0,0,0.02697
2021/08/13 00:47:00.002,n,48,2.88,1.44,4.68,18.3,73.9,1026.22,0,0,0,0,0.029564
2021/08/13 00:48:00.000,n,11,6.12,5.76,6.12,18.3,73.7,1026.22,0,0,0,0,0.033073
2021/08/13 00:49:00.002,n,18,4.68,3.96,5.76,18.3,73.6,1026.12,0,0,0,0,0.027847
2021/08/13 00:50:00.000,n,0,6.12,5.4,6.48,18.2,73.6,1026.12,0,0,0,0,0.03479
2021/08/13 00:51:00.000,n,0,5.76,5.04,6.84,18.2,73.7,1026.12,0,0,0,0,0.029564
2021/08/13 00:52:00.009,n,31,6.12,5.4,7.2,18.2,73.7,1026.12,0,0,0,0,0.031319
2021/08/13 00:53:00.007,n,23,5.4,5.04,5.4,18.2,73.8,1026.12,0,0,0,0,0.029564
2021/08/13 00:54:00.004,n,13,3.96,2.16,5.4,18.2,74,1026.12,0,0,0,0,0.029564
2021/08/13 00:55:00.001,n,353,4.68,3.6,5.04,18.2,74.1,1026.12,0,0,0,0,0.033913
2021/08/13 00:56:00.000,n,350,5.4,4.68,6.12,18.2,74.1,1026.12,0,0,0,0,0.031319
2021/08/13 00:57:00.000,n,314,1.08,0.36,2.16,18.2,76.4,1026.12,0,0,0,0,0.029564
2021/08/13 00:58:00.000,n,336,1.44,0.72,2.52,18.3,76.3,1026.12,0,0,0,0,0.033913
2021/08/13 00:59:00.006,n,254,2.16,1.44,2.88,18.4,75.1,1026.12,0,0,0,0,0.033073
2021/08/13 01:00:00.004,n,33,1.44,0.72,2.52,18.3,74.4,1026.12,0,0,0,0,0.033073
2021/08/13 01:01:00.001,n,226,1.08,0.72,1.44,18.3,74.2,1026.12,0,0,0,0,0.030441
2021/08/13 01:02:00.015,n,204,1.08,0,2.88,18.2,74.1,1026.12,0,0,0,0,0.031319
2021/08/13 01:03:00.012,n,233,1.8,1.44,2.16,18.2,74,1026.12,0,0,0,0,0.030441
2021/08/13 01:04:00.000,n,341,1.44,0.72,1.8,18.2,74.1,1026.12,0,0,0,0,0.030441
2021/08/13 01:05:00.000,n,153,0.72,0.36,0.72,18.2,74.1,1026.12,0,0,0,0,0.035667
2021/08/13 01:06:00.003,n,4,4.68,3.96,5.4,18.2,73.9,1026.12,0,0,0,0,0.031319
2021/08/13 01:07:00.000,n,4,3.96,2.88,4.68,18.2,73.9,1026.12,0,0,0,0,0.03479
2021/08/13 01:08:00.000,n,20,4.32,3.96,4.32,18.2,73.9,1026.12,0,0,0,0,0.029564
2021/08/13 01:09:00.010,n,353,5.4,3.96,5.76,18.2,73.9,1026.12,0,0,0,0,0.030441
2021/08/13 01:10:00.007,n,26,3.96,2.88,4.68,18.2,73.9,1026.12,0,0,0,0,0.031319
2021/08/13 01:11:00.004,n,3,5.76,5.4,6.48,18.1,73.9,1026.12,0,0,0,0,0.035667
2021/08/13 01:12:00.002,n,14,5.4,4.68,5.76,18.1,73.9,1026.02,0,0,0,0,0.031319
2021/08/13 01:13:00.000,n,13,4.32,3.96,4.32,18.1,73.9,1026.02,0,0,0,0,0.033073
2021/08/13 01:14:00.000,n,69,0.72,0.36,1.08,18.1,74,1026.02,0,0,0,0,0.032196
2021/08/13 01:15:00.000,n,8,2.52,1.8,2.88,18.1,73.9,1026.02,0,0,0,0,0.032196
2021/08/13 01:16:00.006,n,2,2.88,2.16,3.6,18.1,74,1026.02,0,0,0,0,0.032196
2021/08/13 01:17:00.003,n,319,1.08,0.36,1.44,18.1,74.1,1026.02,0,0,0,0,0.031319
2021/08/13 01:18:00.000,n,354,3.6,3.6,4.32,18.1,74.3,1026.02,0,0,0,0,0.029564
2021/08/13 01:19:00.000,n,14,2.52,2.16,2.88,18.1,74.2,1026.02,0,0,0,0,0.029564
2021/08/13 01:20:00.010,n,263,3.24,2.88,3.24,18.1,74.2,1026.02,0,0,0,0,0.036545
2021/08/13 01:21:00.007,n,266,2.52,1.8,3.24,18.1,74.2,1026.02,0,0,0,0,0.031319
2021/08/13 01:22:00.000,n,243,1.8,1.08,2.16,18.1,74.2,1026.02,0,0,0,0,0.036545
2021/08/13 01:23:00.001,n,331,1.44,1.08,2.16,18.1,74.3,1026.02,0,0,0,0,0.030441
2021/08/13 01:24:00.000,n,111,0.36,0,0.36,18.1,74.4,1026.02,0,0,0,0,0.033073
2021/08/13 01:25:00.000,n,250,1.44,0.72,1.8,18.1,74.3,1025.92,0,0,0,0,0.031319
2021/08/13 01:26:00.009,n,32,1.44,1.44,1.8,18,74.2,1025.92,0,0,0,0,0.033073
2021/08/13 01:27:00.006,n,47,1.8,0.72,2.52,18,74.4,1025.92,0,0,0,0,0.033913
2021/08/13 01:28:00.003,n,20,2.52,2.16,3.24,18,74.4,1025.92,0,0,0,0,0.02697
2021/08/13 01:29:00.000,n,25,2.16,1.8,2.88,18,74.3,1025.92,0,0,0,0,0.0383
2021/08/13 01:30:00.012,n,116,0.72,0.72,1.08,18,74.2,1025.92,0,0,0,0,0.029564
2021/08/13 01:31:00.000,n,317,1.08,0.72,1.08,18,74.3,1025.92,0,0,0,0,0.036545
2021/08/13 01:32:00.000,n,352,2.52,1.8,2.88,18,74.7,1025.92,0,0,0,0,0.03479
2021/08/13 01:33:00.004,n,255,2.16,1.8,2.16,18,74.4,1025.92,0,0,0,0,0.029564
2021/08/13 01:34:00.001,n,212,1.44,0.36,2.52,18,74.3,1025.92,0,0,0,0,0.030441
2021/08/13 01:35:00.000,n,230,2.52,2.16,2.88,18,74.3,1025.92,0,0,0,0,0.033073
2021/08/13 01:36:00.000,n,226,3.6,3.24,3.6,18,74.4,1025.92,0,0,0,0,0.033913
2021/08/13 01:37:00.009,n,224,2.16,1.8,2.16,17.9,74.5,1025.92,0,0,0,0,0.032196
2021/08/13 01:38:00.006,n,196,2.52,1.44,2.88,17.9,74.6,1025.92,0,0,0,0,0.033073
2021/08/13 01:39:00.002,n,183,3.6,2.88,3.96,17.9,74.6,1025.92,0,0,0,0,0.029564
2021/08/13 01:40:00.000,n,173,2.16,0.72,3.24,17.9,74.6,1025.92,0,0,0,0,0.035667
2021/08/13 01:41:00.000,n,183,3.24,2.52,3.96,17.9,74.6,1025.92,0,0,0,0,0.028725
2021/08/13 01:42:00.000,n,206,2.16,1.44,2.88,17.9,74.5,1025.92,0,0,0,0,0.035667
2021/08/13 01:43:00.000,n,214,0.36,0,1.08,17.9,74.5,1025.92,0,0,0,0,0.028725
2021/08/13 01:44:00.004,n,247,2.52,2.16,2.88,17.9,74.5,1025.92,0,0,0,0,0.033073
2021/08/13 01:45:00.001,n,232,1.08,0.72,2.16,17.9,74.4,1025.92,0,0,0,0,0.029564
2021/08/13 01:46:00.000,n,240,1.08,0.72,1.44,17.9,74.4,1025.82,0,0,0,0,0.033073
2021/08/13 01:47:00.011,n,0,0.72,0.36,1.44,17.9,74.5,1025.82,0,0,0,0,0.02697
2021/08/13 01:48:00.008,n,268,0.72,0.72,1.08,17.9,74.6,1025.82,0,0,0,0,0.024338
2021/08/13 01:49:00.000,n,50,1.8,1.44,1.8,17.9,74.6,1025.82,0,0,0,0,0.026093
2021/08/13 01:50:00.001,n,81,2.16,0.72,2.88,17.8,74.7,1025.82,0,0,0,0,0.025215
2021/08/13 01:51:00.000,n,27,1.8,1.8,1.8,17.8,75.1,1025.72,0,0,0,0,0.027847
2021/08/13 01:52:00.000,n,13,0.72,0.72,1.08,17.7,75.2,1025.72,0,0,0,0,0.02697
2021/08/13 01:53:00.000,n,89,1.8,1.44,2.52,17.7,75.5,1025.72,0,0,0,0,0.029564
2021/08/13 01:54:00.005,n,85,1.8,1.44,1.8,17.7,75.6,1025.72,0,0,0,0,0.02697
2021/08/13 01:55:00.002,n,94,1.44,0.72,1.44,17.6,75.7,1025.72,0,0,0,0,0.030441
2021/08/13 01:56:00.000,n,81,1.8,1.44,1.8,17.6,75.7,1025.72,0,0,0,0,0.02697
2021/08/13 01:57:00.014,n,114,1.08,1.08,1.44,17.6,75.8,1025.72,0,0,0,0,0.02697
2021/08/13 01:58:00.000,n,71,1.08,1.08,1.08,17.6,75.8,1025.72,0,0,0,0,0.02697
2021/08/13 01:59:00.000,n,140,0.72,0.72,1.08,17.5,75.9,1025.72,0,0,0,0,0.025215
2021/08/13 02:00:00.000,n,146,1.44,1.44,1.44,17.5,76,1025.72,0,0,0,0,0.02697
2021/08/13 02:01:00.001,n,162,2.16,1.8,2.52,17.5,76.1,1025.72,0,0,0,0,0.025215
2021/08/13 02:02:00.000,n,179,2.52,2.52,2.88,17.5,76.3,1025.72,0,0,0,0,0.027847
2021/08/13 02:03:00.000,n,175,3.6,3.6,3.6,17.5,76.4,1025.72,0,0,0,0,0.026093
2021/08/13 02:04:00.010,n,175,3.96,3.6,3.96,17.5,76.3,1025.72,0,0,0,0,0.022621
2021/08/13 02:05:00.006,n,180,3.96,3.6,3.96,17.5,76.2,1025.72,0,0,0,0,0.023499
2021/08/13 02:06:00.003,n,179,3.6,2.88,3.96,17.6,76.1,1025.72,0,0,0,0,0.021744
2021/08/13 02:07:00.001,n,209,2.52,2.16,2.88,17.6,76.1,1025.72,0,0,0,0,0.024338
2021/08/13 02:08:00.000,n,174,3.24,2.52,3.6,17.6,76.2,1025.72,0,0,0,0,0.025215
2021/08/13 02:09:00.000,n,186,3.24,2.52,3.6,17.6,76.2,1025.72,0,0,0,0,0.026093
2021/08/13 02:10:00.000,n,192,2.88,2.88,3.24,17.6,76.3,1025.72,0,0,0,0,0.026093
2021/08/13 02:11:00.006,n,181,2.88,2.88,3.24,17.6,76.3,1025.72,0,0,0,0,0.021744
2021/08/13 02:12:00.004,n,196,2.88,2.52,2.88,17.6,76.3,1025.72,0,0,0,0,0.023499
2021/08/13 02:13:00.001,n,204,2.16,1.8,2.16,17.6,76.3,1025.72,0,0,0,0,0.022621
2021/08/13 02:14:00.014,n,210,2.16,1.8,2.16,17.6,76.3,1025.72,0,0,0,0,0.021744
2021/08/13 02:15:00.011,n,204,0.72,0.72,1.08,17.6,76.2,1025.72,0,0,0,0,0.023499
2021/08/13 02:16:00.000,n,253,2.16,2.16,2.16,17.6,76.2,1025.72,0,0,0,0,0.023499
2021/08/13 02:17:00.000,n,257,3.6,3.24,3.96,17.6,76.4,1025.72,0,0,0,0,0.023499
2021/08/13 02:18:00.003,n,183,1.44,1.08,1.8,17.6,76.3,1025.72,0,0,0,0,0.020866
2021/08/13 02:19:00.000,n,212,1.44,1.44,1.44,17.6,76.3,1025.72,0,0,0,0,0.025215
2021/08/13 02:20:00.000,n,213,2.16,1.8,2.52,17.6,76.6,1025.62,0,0,0,0,0.021744
2021/08/13 02:21:00.010,n,138,1.8,1.08,2.16,17.6,76.4,1025.72,0,0,0,0,0.023499
2021/08/13 02:22:00.006,n,179,1.8,1.8,1.8,17.6,76.4,1025.72,0,0,0,0,0.022621
2021/08/13 02:23:00.004,n,163,2.16,1.44,2.52,17.6,76.5,1025.72,0,0,0,0,0.021744
2021/08/13 02:24:00.002,n,161,1.08,1.08,1.44,17.6,76.6,1025.72,0,0,0,0,0.019989
2021/08/13 02:25:00.000,n,139,1.08,0.36,2.16,17.6,76.6,1025.72,0,0,0,0,0.023499
2021/08/13 02:26:00.000,n,195,1.08,0.72,1.08,17.6,76.6,1025.72,0,0,0,0,0.022621
2021/08/13 02:27:00.000,n,132,2.16,1.44,3.6,17.5,76.6,1025.72,0,0,0,0,0.025215
2021/08/13 02:28:00.006,n,175,4.32,3.24,5.4,17.5,76.8,1025.72,0,0,0,0,0.022621
2021/08/13 02:29:00.003,n,203,3.6,1.44,4.68,17.5,76.9,1025.72,0,0,0,0,0.026093
2021/08/13 02:30:00.000,n,246,2.52,2.52,2.88,17.5,76.9,1025.72,0,0,0,0,0.023499
2021/08/13 02:31:00.000,n,154,2.52,1.8,3.24,17.5,77,1025.72,0,0,0,0,0.021744
2021/08/13 02:32:00.009,n,301,2.52,1.8,2.88,17.5,77.1,1025.72,0,0,0,0,0.020866
2021/08/13 02:33:00.007,n,162,1.44,1.08,1.8,17.4,77.2,1025.72,0,0,0,0,0.022621
2021/08/13 02:34:00.000,n,231,3.24,2.52,3.24,17.4,77.7,1025.62,0,0,0,0,0.019989
2021/08/13 02:35:00.001,n,263,1.44,1.08,1.44,17.4,77.7,1025.62,0,0,0,0,0.024338
2021/08/13 02:36:00.000,n,278,3.24,2.52,3.96,17.4,77.7,1025.62,0,0,0,0,0.020866
2021/08/13 02:37:00.000,n,249,2.52,2.16,3.24,17.4,77.5,1025.62,0,0,0,0,0.023499
2021/08/13 02:38:00.008,n,281,6.12,5.76,6.84,17.4,77.5,1025.62,0,0,0,0,0.027008
2021/08/13 02:39:00.007,n,255,3.24,2.88,3.96,17.3,77.5,1025.72,0,0,0,0,0.034828
2021/08/13 02:40:00.005,n,189,1.08,0.36,2.52,17.3,77.6,1025.62,0,0,0,0,0.030479
2021/08/13 02:41:00.003,n,247,0.72,0.36,0.72,17.3,77.9,1025.62,0,0,0,0,0.030479
2021/08/13 02:42:00.002,n,231,2.88,2.16,3.6,17.2,77.8,1025.62,0,0,0,0,0.034828
2021/08/13 02:43:00.000,n,259,4.32,3.96,4.68,17.2,77.8,1025.62,0,0,0,0,0.030479
2021/08/13 02:44:00.000,n,293,1.44,1.08,1.8,17.2,78.2,1025.62,0,0,0,0,0.033951
2021/08/13 02:45:00.000,n,224,3.6,2.88,3.6,17.2,78,1025.62,0,0,0,0,0.032234
2021/08/13 02:46:00.006,n,273,6.48,5.04,7.2,17.2,78.7,1025.62,0,0,0,0,0.028725
2021/08/13 02:47:00.004,n,283,4.32,3.24,5.4,17.2,78.4,1025.62,0,0,0,0,0.033951
2021/08/13 02:48:00.000,n,271,3.96,3.24,3.96,17.1,78.3,1025.62,0,0,0,0,0.030479
2021/08/13 02:49:00.000,n,232,4.68,3.96,5.04,17,78.2,1025.62,0,0,0,0,0.036583
2021/08/13 02:50:00.012,n,255,2.88,2.88,2.88,17,78.3,1025.62,0,0,0,0,0.033951
2021/08/13 02:51:00.010,n,234,0.72,0.72,0.72,17,78.5,1025.62,0,0,0,0,0.030479
2021/08/13 02:52:00.000,n,267,4.32,3.6,5.04,17,78.6,1025.62,0,0,0,0,0.032234
2021/08/13 02:53:00.003,n,225,1.08,0.36,2.52,16.9,78.9,1025.62,0,0,0,0,0.027008
2021/08/13 02:54:00.000,n,284,5.4,5.04,5.76,16.9,79,1025.52,0,0,0,0,0.030479
2021/08/13 02:55:00.000,n,284,1.08,0.72,2.16,16.9,78.8,1025.52,0,0,0,0,0.031357
2021/08/13 02:56:00.000,n,234,2.16,2.16,2.52,16.9,78.9,1025.52,0,0,0,0,0.029602
2021/08/13 02:57:00.008,n,266,3.24,2.88,3.96,16.9,78.9,1025.52,0,0,0,0,0.030479
2021/08/13 02:58:00.005,n,282,5.04,4.32,6.12,16.8,78.9,1025.52,0,0,0,0,0.029602
2021/08/13 02:59:00.003,n,259,7.56,7.2,7.92,16.8,78.9,1025.52,0,0,0,0,0.031357
2021/08/13 03:00:00.001,n,260,3.6,3.24,3.96,16.8,79.1,1025.52,0,0,0,0,0.031357
2021/08/13 03:01:00.000,n,277,5.04,3.96,5.76,16.8,79.1,1025.52,0,0,0,0,0.028725
2021/08/13 03:02:00.000,n,280,3.6,2.16,4.32,16.8,79.2,1025.52,0,0,0,0,0.028725
2021/08/13 03:03:00.000,n,296,3.24,2.16,4.32,16.8,79.9,1025.52,0,0,0,0,0.026131
2021/08/13 03:04:00.005,n,229,3.6,2.16,4.32,16.8,79.9,1025.42,0,0,0,0,0.027885
2021/08/13 03:05:00.003,n,237,2.52,2.16,2.88,16.8,79.9,1025.42,0,0,0,0,0.026131
2021/08/13 03:06:00.001,n,279,2.16,1.44,2.16,16.8,79.8,1025.42,0,0,0,0,0.026131
2021/08/13 03:07:00.000,n,352,1.44,1.08,2.16,16.8,80,1025.42,0,0,0,0,0.023537
2021/08/13 03:08:00.011,n,287,2.52,1.08,3.6,16.8,79.8,1025.42,0,0,0,0,0.026131
2021/08/13 03:09:00.008,n,238,2.88,2.52,3.24,16.8,79.8,1025.42,0,0,0,0,0.024376
2021/08/13 03:10:00.000,n,250,3.24,2.88,3.6,16.8,79.9,1025.42,0,0,0,0,0.025253
2021/08/13 03:11:00.000,n,192,1.08,0.36,1.8,16.8,80.1,1025.42,0,0,0,0,0.027008
2021/08/13 03:12:00.003,n,205,1.44,0.72,1.8,16.8,79.9,1025.42,0,0,0,0,0.028725
2021/08/13 03:13:00.000,n,267,1.44,1.08,2.16,16.8,79.7,1025.42,0,0,0,0,0.023537
2021/08/13 03:14:00.000,n,159,2.88,1.08,4.32,16.700002,79.6,1025.42,0,0,0,0,0.021782
2021/08/13 03:15:00.010,n,285,1.8,1.08,2.52,16.700002,79.6,1025.42,0,0,0,0,0.026131
2021/08/13 03:16:00.007,n,261,2.16,1.8,2.52,16.700002,79.6,1025.42,0,0,0,0,0.022659
2021/08/13 03:17:00.005,n,213,0.72,0,1.08,16.700002,79.7,1025.42,0,0,0,0,0.023537
2021/08/13 03:18:00.002,n,207,1.8,1.08,2.52,16.700002,79.8,1025.42,0,0,0,0,0.020027
2021/08/13 03:19:00.000,n,13,0.36,0,0.72,16.6,79.8,1025.42,0,0,0,0,0.026131
2021/08/13 03:20:00.000,n,194,2.88,2.52,3.24,16.6,79.8,1025.42,0,0,0,0,0.022659
2021/08/13 03:21:00.000,n,226,2.88,2.52,3.24,16.6,79.9,1025.32,0,0,0,0,0.026131
2021/08/13 03:22:00.000,n,225,4.32,3.96,5.04,16.700002,80.3,1025.32,0,0,0,0,0.022659
2021/08/13 03:23:00.004,n,178,0.72,0.36,1.44,16.6,80,1025.32,0,0,0,0,0.020905
2021/08/13 03:24:00.001,n,269,4.32,3.6,4.68,16.6,80.2,1025.32,0,0,0,0,0.024376
2021/08/13 03:25:00.000,n,258,3.96,3.6,4.68,16.6,80.4,1025.32,0,0,0,0,0.022659
2021/08/13 03:26:00.013,n,280,5.76,5.4,6.12,16.6,80.2,1025.32,0,0,0,0,0.023537
2021/08/13 03:27:00.010,n,249,2.52,2.16,2.88,16.6,80,1025.32,0,0,0,0,0.023537
2021/08/13 03:28:00.000,n,161,3.96,3.6,4.68,16.6,80.1,1025.32,0,0,0,0,0.022659
2021/08/13 03:29:00.000,n,259,2.52,2.16,3.24,16.6,80.1,1025.32,0,0,0,0,0.020905
2021/08/13 03:30:00.000,n,91,1.8,1.44,2.16,16.6,80.2,1025.32,0,0,0,0,0.021782
2021/08/13 03:31:00.000,n,119,1.44,1.08,1.8,16.6,80.3,1025.32,0,0,0,0,0.020027
2021/08/13 03:32:00.000,n,144,2.16,1.08,3.6,16.6,80.2,1025.32,0,0,0,0,0.024376
2021/08/13 03:33:00.007,n,181,2.16,0.36,4.68,16.5,80.2,1025.32,0,0,0,0,0.022659
2021/08/13 03:34:00.005,n,123,4.68,3.24,5.76,16.5,80.2,1025.42,0,0,0,0,0.01915
2021/08/13 03:35:00.002,n,58,0.72,0.36,1.44,16.5,80.3,1025.42,0,0,0,0,0.01915
2021/08/13 03:36:00.016,n,121,0.72,0,1.44,16.5,80.3,1025.42,0,0,0,0,0.021782
2021/08/13 03:37:00.000,n,133,2.88,2.52,3.24,16.5,80.4,1025.42,0,0,0,0,0.015678
2021/08/13 03:38:00.000,n,196,0.36,0,0.72,16.5,80.4,1025.42,0,0,0,0,0.029564
2021/08/13 03:39:00.000,n,182,1.8,1.44,2.52,16.5,80.3,1025.42,0,0,0,0,0.036545
2021/08/13 03:40:00.005,n,147,2.88,2.52,3.24,16.5,80.3,1025.42,0,0,0,0,0.032196
2021/08/13 03:41:00.002,n,150,1.08,1.08,1.8,16.5,80.4,1025.42,0,0,0,0,0.033913
2021/08/13 03:42:00.000,n,170,3.96,3.6,4.68,16.4,80.5,1025.42,0,0,0,0,0.032196
2021/08/13 03:43:00.012,n,163,3.6,2.16,4.68,16.4,80.5,1025.42,0,0,0,0,0.030479
2021/08/13 03:44:00.009,n,135,5.04,4.68,5.76,16.4,80.6,1025.42,0,0,0,0,0.032196
2021/08/13 03:45:00.008,n,158,5.04,4.68,5.04,16.4,80.5,1025.42,0,0,0,0,0.033073
2021/08/13 03:46:00.000,n,149,7.2,6.12,8.28,16.4,80.6,1025.42,0,0,0,0,0.031319
2021/08/13 03:47:00.001,n,153,5.04,5.04,5.4,16.3,80.8,1025.42,0,0,0,0,0.029564
2021/08/13 03:48:00.000,n,193,1.44,0.72,2.88,16.3,80.9,1025.42,0,0,0,0,0.033073
2021/08/13 03:49:00.000,n,186,3.6,2.88,3.96,16.3,81.1,1025.32,0,0,0,0,0.033073
2021/08/13 03:50:00.000,n,184,5.04,5.04,5.4,16.3,81.1,1025.42,0,0,0,0,0.032196
2021/08/13 03:51:00.006,n,181,3.24,2.16,3.96,16.3,81.2,1025.42,0,0,0,0,0.028687
2021/08/13 03:52:00.004,n,118,2.88,2.16,3.24,16.3,81.3,1025.32,0,0,0,0,0.031319
2021/08/13 03:53:00.001,n,234,2.52,1.8,2.88,16.200002,81.3,1025.42,0,0,0,0,0.02697
2021/08/13 03:54:00.015,n,159,1.44,0.36,2.52,16.200002,81.5,1025.42,0,0,0,0,0.029564
2021/08/13 03:55:00.000,n,176,7.56,6.48,7.92,16.200002,81.4,1025.42,0,0,0,0,0.028687
2021/08/13 03:56:00.000,n,134,3.6,2.52,3.96,16.200002,81.5,1025.42,0,0,0,0,0.024338
2021/08/13 03:57:00.000,n,173,1.08,0.72,1.8,16.200002,81.4,1025.42,0,0,0,0,0.027847
2021/08/13 03:58:00.004,n,166,5.4,4.32,5.76,16.200002,81.5,1025.42,0,0,0,0,0.025215
2021/08/13 03:59:00.001,n,214,2.52,1.8,3.96,16.200002,81.6,1025.42,0,0,0,0,0.027847
2021/08/13 04:00:00.000,n,293,1.44,1.08,2.16,16.200002,81.9,1025.42,0,0,0,0,0.026131
2021/08/13 04:01:00.011,n,152,2.52,2.52,2.88,16.3,81.7,1025.52,0,0,0,0,0.027847
2021/08/13 04:02:00.009,n,165,2.52,2.52,2.52,16.3,81.5,1025.52,0,0,0,0,0.032196
2021/08/13 04:03:00.007,n,138,5.04,3.24,6.48,16.200002,81.5,1025.52,0,0,0,0,0.029564
2021/08/13 04:04:00.000,n,145,3.96,2.88,4.68,16.200002,81.5,1025.52,0,0,0,0,0.02697
2021/08/13 04:05:00.000,n,143,3.24,2.88,3.6,16.200002,81.5,1025.52,0,0,0,0,0.02697
2021/08/13 04:06:00.000,n,273,1.08,0.36,1.44,16.200002,81.6,1025.52,0,0,0,0,0.024338
2021/08/13 04:07:00.000,n,164,1.44,1.08,1.8,16.200002,81.9,1025.52,0,0,0,0,0.025215
2021/08/13 04:08:00.008,n,155,4.68,3.6,5.76,16.200002,81.6,1025.52,0,0,0,0,0.025215
2021/08/13 04:09:00.006,n,247,1.44,1.08,1.8,16.200002,81.6,1025.52,0,0,0,0,0.01915
2021/08/13 04:10:00.002,n,154,0.72,0.36,1.44,16.200002,81.6,1025.52,0,0,0,0,0.021744
2021/08/13 04:11:00.000,n,225,2.52,2.16,2.88,16.200002,81.7,1025.52,0,0,0,0,0.023499
2021/08/13 04:12:00.013,n,295,0.72,0.36,0.72,16.200002,81.6,1025.52,0,0,0,0,0.023499
2021/08/13 04:13:00.000,n,168,1.44,1.08,1.44,16.200002,81.6,1025.52,0,0,0,0,0.027847
2021/08/13 04:14:00.000,n,127,3.6,2.16,4.68,16.200002,81.5,1025.52,0,0,0,0,0.02697
2021/08/13 04:15:00.004,n,272,6.12,5.4,6.84,16.200002,81.7,1025.52,0,0,0,0,0.023499
2021/08/13 04:16:00.002,n,263,3.24,2.88,3.96,16.200002,81.8,1025.52,0,0,0,0,0.022621
2021/08/13 04:17:00.000,n,254,0.72,0.36,0.72,16.200002,82.1,1025.52,0,0,0,0,0.022621
2021/08/13 04:18:00.000,n,258,2.52,1.8,2.88,16.200002,81.8,1025.52,0,0,0,0,0.023499
2021/08/13 04:19:00.010,n,268,2.16,1.08,2.52,16.200002,81.6,1025.52,0,0,0,0,0.029564
2021/08/13 04:20:00.007,n,255,2.16,1.44,2.52,16.200002,81.6,1025.52,0,0,0,0,0.02697
2021/08/13 04:21:00.005,n,288,5.4,4.32,5.76,16.200002,82.2,1025.52,0,0,0,0,0.031357
2021/08/13 04:22:00.000,n,262,4.32,3.96,5.04,16.200002,81.6,1025.62,0,0,0,0,0.031357
2021/08/13 04:23:00.000,n,267,3.24,2.88,3.6,16.200002,81.6,1025.62,0,0,0,0,0.032196
2021/08/13 04:24:00.000,n,235,3.6,2.88,4.32,16.200002,81.5,1025.62,0,0,0,0,0.029564
2021/08/13 04:25:00.005,n,283,4.68,2.88,6.12,16.1,81.5,1025.62,0,0,0,0,0.029564
2021/08/13 04:26:00.003,n,277,2.52,1.44,3.24,16.1,81.5,1025.62,0,0,0,0,0.029564
2021/08/13 04:27:00.000,n,254,3.96,2.88,4.32,16.1,81.6,1025.62,0,0,0,0,0.033951
2021/08/13 04:28:00.012,n,254,2.88,2.52,2.88,16.1,81.5,1025.62,0,0,0,0,0.03479
2021/08/13 04:29:00.009,n,44,1.8,1.08,2.52,16.1,81.7,1025.62,0,0,0,0,0.027847
2021/08/13 04:30:00.006,n,260,2.88,2.52,3.24,16.1,81.6,1025.62,0,0,0,0,0.035706
2021/08/13 04:31:00.000,n,255,2.52,2.16,2.88,16.1,81.6,1025.62,0,0,0,0,0.03479
2021/08/13 04:32:00.001,n,239,0.72,0.36,0.72,16.1,81.6,1025.62,0,0,0,0,0.031357
2021/08/13 04:33:00.000,n,223,1.08,0.72,1.8,16.1,81.6,1025.62,0,0,0,0,0.029564
2021/08/13 04:34:00.000,n,235,1.08,0.72,1.44,16.1,81.6,1025.62,0,0,0,0,0.030441
2021/08/13 04:35:00.009,n,273,1.8,0.72,2.52,16.1,81.5,1025.62,0,0,0,0,0.029564
2021/08/13 04:36:00.006,n,260,2.88,2.16,3.6,16.1,81.9,1025.62,0,0,0,0,0.030441
2021/08/13 04:37:00.003,n,273,4.68,3.96,5.4,16.1,81.6,1025.62,0,0,0,0,0.029564
2021/08/13 04:38:00.001,n,265,3.96,3.6,4.32,16.1,81.6,1025.62,0,0,0,0,0.031357
2021/08/13 04:39:00.015,n,264,5.04,4.68,5.76,16,81.5,1025.62,0,0,0,0,0.02697
2021/08/13 04:40:00.000,n,270,1.44,0.72,2.16,16,81.6,1025.62,0,0,0,0,0.031357
2021/08/13 04:41:00.000,n,263,3.96,3.6,4.32,16,81.6,1025.62,0,0,0,0,0.032196
2021/08/13 04:42:00.000,n,254,4.68,4.32,5.4,16,81.5,1025.62,0,0,0,0,0.026131
2021/08/13 04:43:00.005,n,249,4.68,3.96,5.76,16,81.5,1025.62,0,0,0,0,0.031357
2021/08/13 04:44:00.002,n,238,3.6,2.88,3.6,15.9,81.7,1025.62,0,0,0,0,0.030441
2021/08/13 04:45:00.000,n,232,1.8,1.44,2.16,15.9,82,1025.62,0,0,0,0,0.025215
2021/08/13 04:46:00.012,n,207,1.08,0.72,1.44,16,82,1025.62,0,0,0,0,0.033951
2021/08/13 04:47:00.009,n,239,1.8,1.44,1.8,16,82,1025.72,0,0,0,0,0.029564
2021/08/13 04:48:00.006,n,350,1.8,1.08,2.16,16,82.5,1025.72,0,0,0,0,0.02697
2021/08/13 04:49:00.000,n,253,1.44,0.72,2.16,16,82.5,1025.72,0,0,0,0,0.027847
2021/08/13 04:50:00.000,n,97,2.52,2.16,3.24,16,82.3,1025.72,0,0,0,0,0.030441
2021/08/13 04:51:00.000,n,123,2.52,0.36,4.68,16,82.1,1025.72,0,0,0,0,0.023499
2021/08/13 04:52:00.000,n,200,3.96,3.6,4.32,16,82,1025.82,0,0,0,0,0.026131
2021/08/13 04:53:00.006,n,206,2.52,1.8,3.6,16,81.9,1025.82,0,0,0,0,0.023499
2021/08/13 04:54:00.003,n,75,0.72,0,1.44,15.9,82,1025.82,0,0,0,0,0.024376